Torna al catalogo

GNOMES-5

AttivoMeteoSSO
NORAD 60574·PAYLOAD·🇺🇸 United States

Lanciato Aug 16, 2024 da Vandenberg Space Force Base

Loading…

Prossimi Passaggi (prossime 24 ore)

TLE

AggiornatoSource: Space-Track

Epoca: Sep 14, 2026, 12:44 UTC

1 60574U 24149DL  26257.53108337  .00002159  00000-0  17046-3 0  9992
2 60574  97.7073 335.0258 0007538 190.2041 169.9032 15.01751582113564

Traccia GNOMES-5 in tempo reale con AllMySat

Download on the App Store